Location: Boss Branch
(32.3799°N, 97.2508°W)
Time: 03:58:44
(UTC+00:00)

Altair - All Passes

Search period start: 12 November 2024 00:00
Search period end: 22 November 2024 00:00
Orbit: 1501 x 1682 km, 47.2° (Epoch: 11 November)

Date Brightness Start Highest point End Pass type
(mag) Time Alt. Az. Time Alt. Az. Time Alt. Az.
12 Nov - 01:54:45 10° WNW 02:01:42 24° SW 02:08:52 10° S visible
12 Nov - 15:00:46 10° SSW 15:09:25 42° SE 15:17:51 10° ENE daylight
12 Nov - 17:04:33 10° WSW 17:13:48 64° NNW 17:22:55 10° NE daylight
12 Nov - 19:11:55 10° WNW 19:19:59 33° N 19:28:04 10° NE daylight
12 Nov - 21:18:35 10° NW 21:26:58 38° NNE 21:35:27 10° E daylight
12 Nov - 23:23:21 10° NW 23:32:37 86° NE 23:42:09 10° SE daylight
13 Nov - 01:29:14 10° WNW 01:36:35 27° SW 01:44:08 10° S visible
13 Nov - 14:35:50 10° SSW 14:44:17 38° SE 14:52:29 10° ENE daylight
13 Nov - 16:39:14 10° WSW 16:48:33 69° NNW 16:57:43 10° NE daylight
13 Nov - 18:46:28 10° WNW 18:54:37 34° N 19:02:46 10° NE daylight
13 Nov - 20:53:19 10° NW 21:01:37 36° NNE 21:10:00 10° E daylight
13 Nov - 22:58:09 10° NW 23:07:23 80° NE 23:16:53 10° SE daylight
14 Nov - 01:03:47 10° WNW 01:11:27 30° SW 01:19:21 10° S visible
14 Nov - 14:10:56 10° S 14:19:09 34° SE 14:27:07 10° ENE daylight
14 Nov - 16:13:55 10° WSW 16:23:19 74° NW 16:32:31 10° NE daylight
14 Nov - 18:21:00 10° WNW 18:29:15 35° NNW 18:37:27 10° NE daylight
14 Nov - 20:28:02 10° NW 20:36:15 35° NNE 20:44:32 10° ENE daylight
14 Nov - 22:32:57 10° NW 22:42:10 75° NE 22:51:36 10° ESE daylight
15 Nov - 00:38:22 10° WNW 00:46:19 33° SW 00:54:30 10° S visible
15 Nov - 13:46:04 10° S 13:54:00 31° SE 14:01:44 10° ENE daylight
15 Nov - 15:48:38 10° WSW 15:58:05 79° NW 16:07:19 10° NE daylight
15 Nov - 17:55:33 10° W 18:03:53 36° NNW 18:12:10 10° NE daylight
15 Nov - 20:02:44 10° NW 20:10:53 34° NNE 20:19:05 10° ENE daylight
15 Nov - 22:07:45 10° NW 22:16:55 70° NE 22:26:17 10° ESE daylight
16 Nov - 00:13:00 10° WNW 00:21:11 37° SW 00:29:36 10° SSE visible
16 Nov - 13:21:16 10° S 13:28:52 27° SE 13:36:16 10° ENE daylight
16 Nov - 15:23:22 10° SW 15:32:51 85° NW 15:42:07 10° NE daylight
16 Nov - 17:30:06 10° W 17:38:32 37° NNW 17:46:54 10° NE daylight
16 Nov - 19:37:25 10° NW 19:45:31 33° N 19:53:38 10° ENE daylight
16 Nov - 21:42:33 10° NW 21:51:41 65° NNE 22:00:58 10° ESE daylight
16 Nov - 23:47:39 10° WNW 23:56:02 41° SW 00:04:40 10° SSE visible
17 Nov - 12:56:31 10° S 13:03:45 24° SE 13:10:47 10° ENE daylight
17 Nov - 14:58:07 10° SW 15:07:39 89° SE 15:16:55 10° NE daylight
17 Nov - 17:04:38 10° W 17:13:11 39° NNW 17:21:38 10° NE daylight
17 Nov - 19:12:06 10° NW 19:20:08 33° N 19:28:11 10° ENE daylight
17 Nov - 21:17:21 10° NW 21:26:25 61° NNE 21:35:37 10° ESE daylight
17 Nov - 23:22:20 10° WNW 23:30:54 45° SW 23:39:41 10° SSE daylight
18 Nov - 12:31:51 10° S 12:38:38 22° SE 12:45:13 10° E visible
18 Nov - 14:32:53 10° SW 14:42:26 83° SE 14:51:42 10° NE daylight
18 Nov - 16:39:10 10° W 16:47:51 41° NNW 16:56:23 10° NE daylight
18 Nov - 18:46:44 10° NW 18:54:45 32° N 19:02:45 10° ENE daylight
18 Nov - 20:52:09 10° NW 21:01:09 57° NNE 21:10:16 10° ESE daylight
18 Nov - 22:57:02 10° WNW 23:05:45 49° SW 23:14:41 10° SSE daylight
19 Nov - 12:07:17 10° SSE 12:13:30 19° SE 12:19:35 10° E visible
19 Nov - 14:07:41 10° SW 14:17:14 77° SE 14:26:29 10° NE daylight
19 Nov - 16:13:43 10° W 16:22:31 43° NNW 16:31:10 10° NE daylight
19 Nov - 18:21:22 10° WNW 18:29:22 32° N 18:37:20 10° ENE daylight
19 Nov - 20:26:56 10° NW 20:35:53 53° NNE 20:44:53 10° ESE daylight
19 Nov - 22:31:45 10° WNW 22:40:35 54° SW 22:49:38 10° SSE daylight
20 Nov - 11:42:49 10° SSE 11:48:23 17° SE 11:53:49 10° E visible
20 Nov - 13:42:30 10° SW 13:52:02 72° SE 14:01:15 10° NE daylight
20 Nov - 15:48:16 10° W 15:57:12 45° NNW 16:05:56 10° NE daylight
20 Nov - 17:55:59 10° WNW 18:03:59 31° N 18:11:55 10° ENE daylight
20 Nov - 20:01:43 10° NW 20:10:36 50° NNE 20:19:30 10° E daylight
20 Nov - 22:06:29 10° WNW 22:15:26 60° SW 22:24:34 10° SSE daylight
21 Nov - 00:15:55 10° WSW 00:18:52 12° WSW 00:21:50 10° SW visible
21 Nov - 11:18:32 10° SSE 11:23:16 15° ESE 11:27:54 10° E visible
21 Nov - 13:17:20 10° SW 13:26:51 66° SE 13:36:02 10° ENE daylight
21 Nov - 15:22:50 10° W 15:31:53 48° NNW 15:40:43 10° NE daylight
21 Nov - 17:30:34 10° WNW 17:38:35 31° N 17:46:31 10° ENE daylight
21 Nov - 19:36:30 10° NW 19:45:17 47° NNE 19:54:06 10° E daylight
21 Nov - 21:41:14 10° WNW 21:50:16 65° SW 21:59:28 10° SE daylight
21 Nov - 23:49:34 10° W 23:53:46 14° WSW 23:58:01 10° SSW visible
